CAPE
1098 1197 1419 1344 1429 1558 1411 1324 310 985 1503 975 1814 1537 1202 523 752 954 736 1545 1390 1391 1346 1437 1818 1496 1605 1890 1973 1684 1554 1673 1755 1538 1624 1687 1596 1569 1722 1768 1776 1709 1748
1519 793 1501 646 1206 569 479 1031 1672 1057 21 218 1003 1676 1492 1737 1714 1839 1069 969 1585 1553 1385 1296 1608 2028 2045 1770 1855 1983 1889 1770 1696 1675 1658 1725 1618 1589 1595 1377 1362 1407 1613
1873 2547 1617 1123 1205 874 956 812 484 1154 311 443 884 449 1122 1862 2092 1969 1507 1219 1237 1747 2050 1962 2298 2407 2471 2377 2130 2032 1929 1968 1959 1875 1897 1918 1720 1610 1447 1398 1401 1416 1334
1988 2346 1750 1563 3394 2655 1979 836 663 505 931 655 788 429 1020 1851 2255 2234 1525 1098 1386 1115 1955 2299 2351 2506 2479 2631 2579 2340 2257 2177 2171 2121 2139 2149 1913 1593 1407 1570 1515 1199 1470
1857 2464 2280 2497 780 419 567 144 96 594 1085 379 142 205 682 1402 675 1204 1977 1361 1854 1517 1136 1925 2510 2511 2311 1757 2683 2745 2798 2687 2544 2373 2237 2036 1866 1751 1762 1584 1606 1558 1565
1837 2495 2399 1703 2687 1844 2027 1624 2307 2219 2008 1307 767 659 750 441 1660 993 1148 327 1214 1943 1391 1192 2151 1905 2456 2388 2347 2543 2646 2702 2722 2424 2207 2012 1949 1796 1719 1701 1647 1648 1662
1830 3464 2659 2321 2681 2338 1432 2020 2443 2257 1812 2186 758 869 263 193 428 627 896 843 1089 1065 1725 1440 1388 1218 1391 2361 2358 2604 2851 2895 2776 2547 2375 2330 2039 1908 1681 1600 1628 1634 1557
2518 2335 2753 886 2830 2659 1529 2713 3124 2996 2128 761 1992 649 280 0 167 556 773 1320 793 978 954 2310 2571 1664 1251 1170 1955 2570 2628 2535 2691 2550 2526 2294 2107 1912 1678 1563 1617 1525 1355
1821 2669 2942 2610 3049 2868 554 1166 2653 3254 2286 1700 1798 2125 866 332 446 400 888 989 1748 699 346 1123 2155 2611 2276 1677 1504 1934 2199 1979 2359 2447 2448 2361 2102 1802 1690 1627 1549 1441 1371
2211 1746 2396 3523 3184 3088 3054 2889 2403 2641 2505 1576 1771 413 2330 2157 1456 1089 214 322 538 717 804 1755 871 2373 2470 2214 2160 2034 2024 1674 2227 2391 2445 2412 2168 1868 1720 1617 1537 1552 1453
2227 1826 2595 2818 3429 3283 2289 2417 1055 1075 2478 2273 2256 1089 1587 1438 2847 1817 544 313 28 669 1499 1185 1202 1988 2277 2373 1705 1635 1693 1485 1548 2168 2361 2368 2370 1853 1230 1497 1619 1648 1510
1865 2004 1867 2632 3060 2980 3089 2246 1665 1306 2559 2556 2666 1641 1511 1073 847 602 914 663 317 359 361 364 289 1499 2272 2483 1845 1509 1699 1349 1196 1396 1578 2134 2522 2375 1679 1331 1159 1274 1238
1467 1181 1985 2489 2141 2569 2983 3097 1875 2362 2388 2710 3114 2644 2023 1219 1053 1317 1198 931 839 724 856 974 794 1659 1106 779 1499 1574 1531 1031 728 648 748 1029 1562 2155 2350 2156 1915 1649 1525
1698 1785 1644 1790 2408 2607 3067 2616 2904 2789 2283 2879 2682 2870 2525 1985 1359 1335 1590 1650 835 1097 1038 2012 1023 631 1692 1795 1403 1551 839 653 669 250 398 539 775 1018 1424 1762 1908 1917 1986
1864 1613 1090 1450 1971 2591 2724 2552 2485 2885 2740 1771 2659 3110 2977 2147 1786 1263 1652 1003 1892 1159 1313 764 252 1002 787 640 1322 1451 2324 903 1033 1154 921 362 406 727 796 844 1178 1375 1401
2553 1423 1905 1704 1824 2214 2705 2581 1905 2396 2247 2907 1874 2463 2836 2579 2121 1623 1625 1903 1223 1384 1102 1868 771 1801 792 298 668 1643 2025 979 853 1074 1180 1058 463 348 255 659 670 738 936
2544 2930 2379 2020 1966 2346 2490 2850 2429 2603 2738 2423 2513 2276 2311 2312 1914 2179 2223 1930 2434 1616 1678 1802 1567 1508 1806 916 2347 2100 2562 2369 1680 1495 1095 1059 711 457 346 229 382 433 664
2763 2384 2508 2435 2467 2557 2674 2998 2365 1683 2332 2285 2300 2204 2091 2407 2426 2645 2494 2446 1921 2059 1852 2236 1729 1468 1640 2105 2774 3094 2265 1190 1631 1759 1312 1098 838 743 418 373 368 210 368
2514 2463 2622 2249 2521 2824 2812 2476 2473 2092 2338 2680 2922 2423 2135 2112 2898 2458 2392 1966 2039 2231 2256 1856 1259 1176 1190 1715 1553 2923 2587 2554 2494 1772 1444 787 840 823 782 611 442 306 464
2213 1856 2455 2513 2658 2901 2523 2629 2702 2623 2906 2657 2807 2613 2940 2235 2569 2430 2362 2638 2111 2102 1938 1763 1617 1425 1703 1561 1482 781 723 32 1153 1196 1236 986 844 865 798 674 396 302 374
3214 2840 2051 2428 2639 2480 2208 2533 2587 2612 2772 2720 2361 3093 2533 2329 2397 2338 2478 2583 2512 2170 2066 2234 1214 784 960 1505 1151 980 763 765 922 1108 677 613 712 845 702 624 548 393 350
3364 3375 3256 3061 2815 2394 1558 1194 1812 2374 2288 2600 2786 3285 2941 2331 2085 1686 1516 1405 1620 2429 2146 1761 1560 1637 1601 1517 1315 1482 1303 753 698 1428 816 592 905 1137 1286 1020 833 683 547
3893 3595 3379 3146 2946 2763 2139 1504 1157 1858 2434 2338 2812 3052 2205 1823 2134 2624 1781 1524 1269 1048 851 1377 1052 759 501 556 262 83 264 355 678 862 1125 956 1277 1109 957 863 951 802 669
4004 3921 3677 3554 3337 3253 2599 2064 1707 1504 2286 2314 2337 2660 2858 2901 3009 2311 2847 2994 2039 1703 899 573 394 282 290 0 0 0 0 0 0 1 135 73 122 636 482 415 571 578 587
4217 4077 3951 3737 3500 3287 2628 2335 1844 1821 1983 2245 2368 2496 2365 2377 2024 1715 1881 1787 1706 1146 577 432 221 48 0 0 1 0 0 0 1 2 5 3 0 0 0 2 53 153 174
4047 4065 4056 3900 3504 3548 3107 2536 1965 2005 2144 2076 2367 2443 2089 1767 1682 1865 1666 1350 933 720 514 114 52 4 0 0 0 0 0 0 0 0 1 0 35 24 17 5 9 10 14
CIN
-12 -6 -9 -15 -17 -24 -25 -76 -205 -72 -27 -16 -10 -13 -20 -16 -166 -53 -140 -106 -108 -89 -69 -43 -11 -24 -13 0 0 0 0 0 0 0 0 0 0 0 0 0 0 0 0
-11 -11 -5 -31 -26 -231 -212 -115 -84 -25 -32 -164 -30 -40 -10 -24 -27 -16 -130 -155 -99 -96 -81 -62 -28 -4 -2 -5 -1 0 0 0 0 0 0 0 0 0 0 0 0 0 0
-8 -19 -19 -48 -27 -31 -66 -123 -6 -12 -27 -101 -1 -178 -11 -12 -26 -26 -26 -22 -123 -82 -68 -56 -15 0 0 0 0 0 0 0 0 0 0 0 0 0 0 0 0 0 0
-4 -19 -44 -22 -15 -13 -45 -14 -34 -169 -60 -128 -211 -236 -17 -25 -38 -15 -88 -222 -108 -93 -76 -47 -34 -3 0 0 0 0 0 0 0 0 0 0 0 0 0 0 0 0 0
-9 -19 -22 -32 -45 -76 -55 -3 -2 -25 -46 -6 -128 -52 -237 -72 -284 -81 -20 -92 -50 -52 -137 -94 -46 -34 -20 -21 0 0 0 0 0 0 0 0 0 0 0 0 0 0 0
-8 -16 -13 -49 -21 -75 -64 -45 -53 -41 -37 -55 -37 -63 -37 -39 -64 -127 -99 -54 -41 -69 -87 -127 -84 -77 -32 -17 -5 0 0 0 0 0 0 0 0 0 0 0 0 0 0
-7 -4 -10 -33 -13 -58 -72 -14 -16 -27 -39 -34 -128 -143 -122 -13 -40 -59 -144 -220 -143 -69 -70 -131 -110 -67 -109 -40 -16 -4 0 0 0 0 0 0 0 0 0 0 0 0 0
-7 -8 -4 -104 -17 -31 -105 -32 -17 -19 -32 -85 -22 -40 -158 0 -58 -153 -33 -75 -93 -18 -9 -36 -45 -113 -47 -97 -60 -15 -6 -1 0 0 0 0 0 0 0 0 0 0 0
-10 -4 -4 -19 -11 -22 -173 -59 -18 -7 -21 -33 -24 -30 -60 -56 -108 -139 -7 -94 -53 -6 -12 -28 -42 -53 -58 -51 -95 -58 -33 -31 -2 0 0 0 0 -1 0 0 0 0 0
-3 -3 -8 -3 -2 -22 -10 -20 -12 -15 -24 -38 -48 -3 -16 -42 -37 -50 -134 -160 -162 -23 -21 -40 -196 -37 -63 -92 -68 -75 -75 -67 -17 -2 0 0 0 -1 0 0 0 0 0
-8 -3 -5 -8 -2 -9 -32 -16 -125 -143 -22 -31 -20 -14 -38 -35 -22 -31 -41 -142 -30 -102 -24 -45 -135 -60 -48 -43 -105 -162 -124 -104 -74 -21 -3 -1 0 -4 -24 -5 0 0 0
-13 -7 -4 -9 -10 -14 -10 -21 -65 -84 -16 -21 -25 -60 -49 -39 -33 -59 -38 -51 -39 -63 -61 -58 -80 -44 -81 -62 -78 -183 -133 -137 -136 -101 -65 -15 0 0 -7 -15 -18 -8 -5
-16 -20 -14 -10 -7 -13 -9 -9 -41 -11 -12 -13 -5 -18 -36 -19 -35 -33 -35 -48 -44 -44 -121 -73 -109 -66 -101 -55 -6 -143 -161 -206 -220 -195 -168 -123 -57 -10 -1 0 0 0 -1
-18 -49 -20 -17 -9 -8 -8 -21 -5 -4 -12 -13 -9 -11 -16 -46 -70 -48 -23 -20 -49 -56 -116 -80 -139 -108 -104 -117 -130 -142 -36 -47 -23 -197 -256 -195 -141 -105 -61 -25 -5 -2 -1
-10 -49 -75 -26 -11 -11 -13 -16 -8 -8 -14 -13 -5 -8 -8 -32 -56 -62 -54 -40 -30 -26 -41 -42 -44 -93 -5 -19 -36 -100 -50 -23 -22 -23 -27 -81 -183 -148 -125 -121 -77 -44 -25
-18 -58 -27 -17 -19 -13 -12 -19 -23 -16 -22 -10 -16 -15 -9 -16 -31 -30 -63 -42 -68 -26 -31 -46 -11 -32 -140 -126 -18 -67 -25 -19 -40 -41 -35 -45 -107 -97 -164 -135 -117 -113 -86
-30 -13 -34 -20 -24 -11 -6 -12 -15 -15 -5 -13 -11 -16 -16 -32 -45 -40 -50 -63 -44 -63 -36 -33 -63 -77 -66 -61 -43 -51 -43 -61 -46 -12 -36 -61 -107 -154 -85 -89 -180 -170 -117
-11 -11 -19 -15 -11 -10 -10 -10 -15 -17 -12 -15 -10 -25 -32 -4 -37 -15 -30 -33 -44 -58 -45 -26 -43 -43 -49 -62 -63 -57 -27 -11 -46 -5 -6 -49 -113 -42 -68 -93 -92 -91 -45
-26 -12 -14 -26 -10 -9 -16 -16 -12 -19 -10 -6 -7 -19 -27 -29 -16 -12 -23 -21 -24 -20 -41 -41 -34 -50 -62 -50 -50 -39 -38 -42 -34 -31 -19 -16 -42 -39 -51 -67 -96 -87 -96
-37 -32 -11 -10 -7 -8 -13 -4 -5 -7 -4 -5 -8 -13 -12 -28 -14 -23 -12 -16 -26 -24 -18 -29 -27 -28 -36 -49 -111 -114 -107 -89 -31 -32 -42 -25 -52 -56 -72 -85 -125 -121 -87
-6 -9 -23 -8 -6 -4 -1 -4 -6 -5 -7 -8 -14 -10 -13 -30 -7 -28 -25 -28 -17 -15 -16 -17 -33 -51 -36 -40 -39 -36 -50 -82 -54 -111 -58 -65 -10 -59 -76 -23 -21 -46 -111
-6 -5 -3 -2 -3 0 -1 -4 -14 -7 -17 -6 -7 -8 -17 -18 -4 -14 -13 -16 -11 -24 -12 -19 -5 -1 -3 -7 -8 -1 -2 -7 -5 -54 -26 -59 -65 -82 -38 -36 -32 -23 -27
-2 -2 -1 -1 -3 -5 -1 -2 -3 -20 -16 -9 -11 -16 -17 -3 -14 -17 -9 -16 -29 -37 -51 -35 -27 -38 -31 -10 -32 -55 -4 -6 -1 -5 -10 -28 -46 -41 -13 -13 -14 -5 -4
-1 -1 -1 -2 -2 -2 -4 -11 -10 -66 -17 -20 -26 -12 -9 -11 -18 -23 -16 -9 -14 -13 -34 -59 -81 -73 -40 0 0 0 0 0 0 -7 -39 -63 -98 -27 -15 -18 -2 0 -1
-1 -1 -1 -1 -1 -3 -11 -19 -26 -31 -15 -13 -12 -16 -21 -20 -12 -36 -20 -7 -12 -16 -41 -65 -127 -173 0 0 -1 0 0 0 -15 -11 -10 -13 0 0 0 -13 -46 -14 -10
-4 -1 -2 -2 -4 -2 -2 -18 -32 -24 -8 -15 -14 -18 -22 -50 -57 -32 -22 -15 -56 -79 -85 -135 -144 0 0 0 0 0 0 0 0 0 -2 -2 -56 -7 -14 -23 -32 -28 -38
Wind_Speed
8 8 9 8 10 11 16 14 16 24 9 17 27 26 22 28 31 22 16 19 19 20 23 24 24 24 23 21 20 19 19 18 17 17 16 15 12 10 9 10 9 9 10
6 6 8 10 12 12 22 14 23 14 nan 18 15 26 26 23 16 15 16 18 22 22 23 24 24 23 24 23 21 21 20 18 17 17 17 16 14 13 13 12 12 12 10
5 11 9 12 13 11 16 11 17 7 30 12 27 21 30 14 5 14 8 13 21 28 27 27 26 25 24 24 25 24 23 21 20 20 19 18 16 15 15 13 13 11 9
8 7 10 9 9 5 6 5 10 12 16 18 22 24 13 18 1 11 15 17 19 21 25 27 27 28 29 27 25 24 24 24 23 22 20 19 18 18 17 15 12 11 10
8 10 13 7 5 8 3 3 nan 9 15 18 17 17 8 6 21 17 13 18 23 17 17 25 27 27 29 31 28 27 26 25 24 22 20 19 18 18 16 16 16 14 13
9 8 11 12 8 7 11 2 8 7 14 15 6 7 4 4 7 5 18 20 20 13 16 16 16 18 26 28 26 26 26 27 26 25 23 21 19 17 15 16 15 15 14
13 12 11 13 7 6 5 6 7 9 10 5 3 6 2 5 2 5 20 21 15 16 20 18 14 13 15 23 23 24 25 24 23 23 22 21 20 19 16 14 12 13 12
16 13 16 8 9 10 11 7 2 3 2 2 3 5 5 nan 6 10 15 11 15 5 6 13 14 15 12 14 19 22 21 21 21 20 19 19 19 18 18 16 14 12 11
13 17 19 13 12 12 9 3 2 0 2 1 4 5 9 9 13 10 12 9 11 6 14 16 15 13 13 14 18 16 17 17 19 19 18 18 17 16 16 15 15 14 12
11 17 16 15 14 11 10 2 12 10 4 4 5 6 7 11 13 9 6 5 10 22 16 17 13 11 11 14 18 20 19 17 16 16 16 17 17 16 14 14 13 13 12
10 10 16 14 16 11 8 15 20 17 3 4 11 9 7 5 5 6 5 7 nan 9 13 13 12 14 12 11 14 15 23 19 18 16 17 18 18 17 16 14 14 13 12
16 15 15 16 16 12 11 17 17 12 4 7 13 9 9 7 7 8 7 5 4 4 8 10 9 16 14 13 16 24 22 20 17 16 15 15 16 16 15 15 15 14 13
17 15 14 19 17 13 12 13 13 12 11 10 13 10 11 9 9 11 10 7 8 7 10 10 12 13 17 15 19 22 20 20 19 17 16 15 15 15 14 15 16 16 14
11 21 13 13 12 13 11 12 13 14 10 11 10 11 11 10 9 11 13 13 11 12 14 13 15 11 14 23 21 20 17 19 20 19 18 16 15 16 17 17 16 16 15
6 12 11 12 12 12 12 12 13 13 12 12 14 14 15 13 11 14 12 15 17 14 15 17 21 21 17 17 11 17 17 21 21 20 21 20 19 19 18 19 19 17 17
3 2 7 7 10 8 10 13 11 12 12 13 17 15 16 17 16 16 14 15 19 15 14 18 18 18 29 18 4 8 15 25 24 21 19 23 22 22 21 20 19 19 18
9 8 9 10 8 8 7 9 9 13 16 15 17 16 17 16 15 16 16 17 17 17 14 14 18 16 26 25 16 11 18 18 20 22 20 22 21 21 22 22 21 19 19
6 10 13 15 10 12 12 13 14 12 16 18 16 14 16 16 16 15 15 15 15 13 13 13 17 17 19 21 20 20 18 17 16 18 23 25 22 20 20 22 23 22 21
7 8 10 11 11 14 14 15 19 15 14 17 15 16 14 16 15 18 16 17 17 17 16 16 14 16 19 20 21 23 22 23 23 20 21 29 25 21 22 24 25 25 24
12 9 7 7 7 10 10 11 13 11 13 14 13 14 15 15 16 17 16 18 17 15 16 15 16 20 22 24 33 30 30 nan 17 24 23 26 17 21 20 23 26 26 25
17 16 10 6 7 6 8 8 10 10 12 13 11 13 15 12 15 20 22 20 18 19 20 17 14 16 19 25 28 29 29 28 24 32 34 33 16 19 22 19 21 26 24
15 14 13 12 8 8 8 8 11 11 11 12 14 17 17 15 16 16 19 19 21 20 20 25 22 22 23 26 26 29 26 26 26 39 38 32 25 22 21 20 24 35 31
16 17 17 16 13 12 12 12 11 12 15 13 15 19 16 15 17 22 25 31 25 24 24 24 26 28 26 28 32 nan 32 30 29 32 45 33 32 25 29 28 35 33 32
16 16 18 19 18 18 19 18 20 18 17 17 18 19 20 20 19 22 23 28 31 29 30 30 31 31 34 nan nan nan nan nan nan nan 32 nan 32 28 34 36 40 34 30
19 16 17 18 19 20 23 24 26 22 20 20 19 17 15 17 29 34 32 29 26 28 29 34 31 nan nan nan nan nan nan nan nan nan nan nan nan nan nan nan nan 36 31
21 19 17 17 19 21 25 26 26 23 21 22 19 12 10 12 32 32 29 27 26 28 32 32 nan nan nan nan nan nan nan nan nan nan nan nan nan nan nan nan nan nan nan
Wind_Direction
96 102 100 98 104 71 75 7 75 73 149 130 98 83 45 34 45 48 51 28 24 31 36 37 40 38 42 48 47 48 48 51 53 56 55 53 55 55 57 63 75 97 99
123 87 81 79 97 215 108 74 59 39 nan 91 106 95 76 49 41 41 37 44 42 35 41 44 46 47 45 43 43 46 49 50 53 56 56 54 55 55 55 63 71 78 78
150 154 95 84 87 7 64 109 107 81 308 79 61 85 97 87 90 79 61 42 53 44 37 42 46 49 50 48 49 49 49 50 52 53 51 51 53 54 56 60 63 64 66
154 144 131 107 135 132 147 105 84 73 34 34 31 64 88 64 194 47 30 40 41 51 42 37 40 47 48 50 50 48 50 51 51 56 58 57 53 54 54 55 53 58 69
174 169 160 143 170 166 48 18 nan 79 81 32 41 64 28 3 356 87 70 52 25 23 37 34 36 39 44 48 50 50 51 52 52 52 50 54 57 56 53 56 52 51 51
212 206 183 155 171 212 156 99 62 79 84 96 168 121 111 266 55 354 88 87 63 25 28 17 31 42 38 41 42 46 50 53 52 49 47 47 46 48 50 50 50 52 52
229 222 218 182 194 237 102 163 127 114 105 131 110 95 95 197 52 346 65 60 72 24 12 23 34 27 28 37 40 38 40 43 42 42 45 44 42 42 40 42 47 50 51
227 223 239 197 189 232 211 152 168 116 162 157 23 13 334 nan 136 79 82 56 20 354 118 69 44 27 19 22 28 29 30 26 27 30 30 28 31 32 34 34 34 35 37
237 228 230 226 210 231 270 116 104 238 269 139 289 342 310 323 20 56 68 36 5 330 20 46 33 15 16 358 7 9 18 18 19 21 21 18 14 17 23 25 26 28 31
262 233 226 222 237 212 225 225 220 203 248 279 272 264 312 339 347 8 45 35 17 349 7 3 352 354 3 341 354 3 3 3 9 12 7 6 7 9 8 13 14 14 11
272 233 230 238 236 232 227 236 247 208 205 258 281 281 318 301 311 292 351 4 nan 327 343 337 339 321 335 344 330 329 341 349 356 359 1 2 3 3 9 10 9 5 4
266 256 240 238 234 234 227 255 283 341 265 265 274 272 276 281 294 316 303 277 267 296 294 295 291 316 315 313 295 317 330 336 345 350 354 357 359 358 1 3 -0 355 351
270 261 245 232 233 235 226 237 287 302 285 266 257 258 261 274 288 293 283 279 267 262 265 264 267 287 293 295 301 310 329 329 336 338 337 341 343 341 341 339 339 341 337
285 255 251 225 227 244 235 233 246 260 262 273 271 269 264 261 270 285 290 274 255 264 268 273 255 236 281 293 311 321 315 331 333 333 330 328 329 328 328 327 323 325 329
325 290 221 209 220 231 243 238 248 253 246 255 266 278 275 271 269 270 273 284 286 277 278 285 302 306 305 271 258 317 309 331 331 329 329 332 332 334 333 324 318 318 315
320 309 260 231 237 243 264 255 230 247 257 263 273 271 272 265 261 271 275 266 272 285 285 291 305 299 273 282 219 24 301 319 329 332 335 338 336 332 332 332 329 322 314
278 276 299 305 285 281 272 249 243 243 249 263 258 262 270 270 270 268 266 266 264 273 280 285 282 283 301 316 351 316 306 310 309 333 329 325 321 323 326 327 328 327 326
254 267 255 269 283 283 279 273 261 250 266 274 270 274 272 280 285 271 267 271 273 276 285 289 288 294 304 319 328 319 297 279 270 295 321 311 308 316 323 325 323 324 326
284 254 277 272 269 258 248 257 266 257 255 258 262 264 266 267 271 275 269 268 272 274 276 283 289 292 296 299 295 289 290 287 280 269 284 306 307 321 324 325 325 322 321
319 308 278 289 287 281 270 260 262 268 267 262 259 262 261 265 269 275 276 277 276 281 279 282 283 283 286 283 286 287 282 nan 270 277 282 291 287 307 318 318 320 318 318
308 312 310 289 295 286 267 264 270 268 268 273 262 257 262 260 279 276 277 281 287 284 285 283 290 294 283 284 289 294 301 305 294 291 284 291 213 273 283 307 313 313 317
301 289 287 285 272 260 270 278 285 272 269 274 272 263 259 259 282 304 305 308 278 289 290 284 294 289 289 292 289 293 295 292 287 290 283 290 288 273 271 287 309 300 315
307 305 298 287 275 261 255 253 271 265 267 266 266 271 269 278 284 280 293 290 297 301 310 300 299 300 295 291 289 nan 289 293 293 281 274 266 270 279 267 258 261 275 294
313 303 298 292 286 277 285 283 277 262 253 252 250 259 269 273 281 285 285 293 302 304 305 308 310 310 307 nan nan nan nan nan nan nan 274 nan 259 269 278 268 254 264 280
308 310 299 297 290 279 281 288 281 276 269 264 266 273 287 300 295 290 289 292 287 286 295 313 313 nan nan nan nan nan nan nan nan nan nan nan nan nan nan nan nan 253 262
295 297 301 295 287 278 278 283 283 270 274 271 272 279 296 293 289 290 283 284 287 293 289 287 nan nan nan nan nan nan nan nan nan nan nan nan nan nan nan nan nan nan nan